www.pogodaiklimat.ru

Погода и климат >> Архив погоды >> Антигуа и Барбуда >> Сент-Джонс


ПОГОДА в Сент-Джонсе

  • Прогноз погоды в Сент-Джонсе
  • Монитор погоды в Сент-Джонсе

АРХИВ ПОГОДЫ в Сент-Джонсе

Время (UTC), дата Ветер
(напр.,м/с)
 
Видим.   Явления Облачность Т
(С)
Тd
(С)
f
(%)
Тe
(С)
Тes
(С)
Комфортность P
(гПа)
Po
(гПа)
Тmin
(С)
Tmax
(С)
R
(мм)
R24
(мм)
S
(см)
00 16.02 ЮВ 3 26 км слаб. ливневой дождь 5/5 540 м
[Cu Sc]
+24.7 +20.5 77 +31 +31 очень
душно
1017.0 1014.7 +22.8 +28.3
03 16.02 нст 1 26 км мгла 3/3 540 м
[Cu med, cong]
+24.1 +20.1 78 +30 +30 очень
душно
1017.7 1015.4
06 16.02 штиль 0 26 км мгла 8/8 540 м
[Cu Sc]
+23.9 +20.1 79 +29 +29 душно 1016.2 1013.9 +22.8 +28.3
09 16.02 Ю 2 26 км мгла 5/5 540 м
[Cu Sc]
+24.4 +20.9 81 +31 +31 очень
душно
1016.3 1014.0
12 16.02 ЮВ 4 26 км мгла 6/1 540 м
[Cu Sc Ci sp]
+26.1 +20.7 72 +33 +34 очень
душно
1018.2 1015.9 +28.3
15 16.02 Ю 5 26 км мгла 8/3 630 м
[Cu Sc Ci sp]
+28.9 +19.7 58 +35 +40 очень
душно
1018.5 1016.2
18 16.02 ЮВ 6 26 км пыль 9/5 600 м
[Cu Sc Ac lent Ci sp]
+27.2 +20.9 68 +34 +36 очень
душно
1016.4 1014.1 +23.7 +29.4
21 16.02 ЮВ 5 26 км мгла 9/6 540 м
[Cu med, cong Ac lent Ci sp]
+26.4 +21.7 75 +34 +34 очень
душно
1015.7 1013.4
00 17.02 ЮВ 2 26 км мгла 8/4 540 м
[Cu med, cong Ac lent Ci sp]
+25.3 +21.7 80 +32 +32 очень
душно
1017.5 1015.2 +23.8 +29.4
03 17.02 ЮВ 3 26 км в посл. час ливневой дождь 9/4 500 м
[Cu med, cong Ac lent Ci sp]
+24.9 +21.8 83 +32 +32 очень
душно
1018.2 1015.9
06 17.02 ЮВ 2 26 км мгла 8/3 540 м
[Cu med, cong Ac lent Ci sp]
+24.4 +21.1 82 +31 +31 очень
душно
1017.1 1014.8 +23.8 +29.4 0.0
09 17.02 штиль 0 26 км мгла 5/5 540 м
[Cu med, cong Ci sp]
+23.5 +20.6 84 +29 +29 душно 1017.4 1015.1
12 17.02 ЮВ 5 28 км мгла 5/5 600 м
[Cu med, cong Ci sp]
+24.8 +20.6 77 +31 +32 очень
душно
1019.4 1017.1 +23.0 +29.4
15 17.02 ЮВ 6 28 км мгла 4/4 600 м
[Cu med, cong]
+27.7 +20.8 66 +35 +38 очень
душно
1020.7 1018.4
18 17.02 В 6 28 км мгла 3/3 630 м
[Cu med, cong]
+27.9 +20.6 65 +35 +38 очень
душно
1018.7 1016.4 +23.0 +28.8 0.0
21 17.02 В 5 28 км мгла 1/1 630 м
[Cu med, cong]
+26.5 +19.3 65 +32 +32 очень
душно
1017.8 1015.5
00 18.02 ЮВ 4 28 км мгла 1/1 540 м
[Cu med, cong]
+25.0 +20.0 74 +31 +31 очень
душно
1019.1 1016.8 +23.0 +28.8
03 18.02 В 4 28 км мгла 3/3 540 м
[Cu med, cong]
+24.7 +18.3 68 +29 +29 душно 1020.0 1017.7
06 18.02 В 5 28 км мгла 5/5 540 м
[Cu med, cong]
+24.4 +19.7 75 +30 +30 очень
душно
1018.4 1016.1 +23.0 +28.8
09 18.02 В 4 26 км в посл. час ливневой дождь 8/8 500 м
[Cu Sc]
+21.4 +19.7 90 +26 +26 душно 1018.3 1016.0
12 18.02 В 7 28 км мгла 4/4 540 м
[Cu Sc]
+25.2 +19.7 72 +31 +31 очень
душно
1019.5 1017.2 +21.2 +28.8 3
15 18.02 В 8 28 км мгла 3/3 660 м
[Cu Sc]
+27.1 +19.7 64 +33 +35 очень
душно
1020.7 1018.4
18 18.02 В 6 30 км 3/3 600 м
[Cu med, cong]
+27.6 +18.9 59 +33 +36 очень
душно
1019.2 1016.9 +21.2 +27.9
21 18.02 В 6 30 км 1/1 600 м
[Cu med, cong]
+26.1 +18.5 63 +31 +31 очень
душно
1019.0 1016.7
00 19.02 В 6 30 км 1/1 600 м
[Cu med, cong]
+25.0 +18.5 67 +30 +30 душно 1020.2 1017.9 +21.2 +28.1
03 19.02 В 6 30 км 1/1 540 м
[Cu med, cong]
+24.9 +18.9 69 +30 +30 душно 1020.9 1018.6
06 19.02 В 5 30 км 1/1 540 м
[Cu Sc]
+24.5 +19.4 73 +30 +30 очень
душно
1019.9 1017.6 +21.2 +28.1
09 19.02 В 6 30 км 1/1 540 м
[Cu med, cong]
+24.6 +17.5 65 +29 +29 душно 1018.7 1016.4
12 19.02 В 5 30 км 1/1 600 м
[Cu Sc]
+25.6 +17.2 60 +30 +31 душно 1019.9 1017.6 +24.2 +28.1
15 19.02 В 6 30 км 1/1 600 м
[Cu Sc]
+27.6 +16.9 52 +31 +38 душно 1021.0 1018.7
18 19.02 В 6 30 км 3/3 700 м
[Cu Sc]
+27.8 +19.3 60 +33 +37 очень
душно
1018.7 1016.4 +24.2 +28.9
21 19.02 В 6 30 км 4/4 630 м
[Cu Sc]
+25.9 +18.4 63 +31 +31 очень
душно
1017.7 1015.4
00 20.02 В 5 30 км 8/8 600 м
[Cu Sc]
+24.9 +20.3 76 +31 +31 очень
душно
1018.6 1016.3 +24.2 +28.9
03 20.02 В 5 30 км 3/3 600 м
[Cu med, cong]
+24.7 +19.7 74 +30 +30 очень
душно
1019.6 1017.3
06 20.02 В 5 30 км {ливн. осадки} 4/4 540 м
[Cu Sc]
+24.3 +19.9 76 +30 +30 очень
душно
1018.3 1016.0 +23.4 +28.9 0.3
09 20.02 В 6 30 км {ливн. осадки} 3/3 540 м
[Cu Sc]
+24.5 +18.0 67 +29 +29 душно 1017.6 1015.3
12 20.02 В 5 30 км {ливн. осадки} 3/3 660 м
[Cu Sc]
+26.5 +16.6 55 +30 +32 душно 1018.7 1016.4 +23.4 +28.9 0.1
18 20.02 В 7 30 км 1/1 660 м
[Cu Sc]
+28.1 +17.7 53 +32 +36 душно 1017.6 1015.3 +23.4 +28.9
21 20.02 В 7 30 км 4/4 600 м
[Cu Sc]
+26.4 +19.4 65 +32 +32 очень
душно
1017.3 1015.0
00 21.02 В 5 30 км {ливн. осадки} 4/4 540 м
[Cu Sc]
+24.8 +18.7 69 +30 +30 душно 1018.3 1016.0 +23.5 +28.9 0.0
03 21.02 В 6 30 км 4/4 540 м
[Cu Sc]
+24.6 +18.0 67 +29 +29 душно 1018.9 1016.6
09 21.02 В 6 30 км 5/5 600 м
[Cu Sc]
+24.1 +18.8 72 +29 +29 душно 1017.7 1015.4
12 21.02 В 7 30 км {ливн. осадки} 5/5 540 м
[Cu Sc]
+25.6 +16.7 58 +29 +30 душно 1019.5 1017.2 +22.4 +28.9 0.1
15 21.02 В 7 30 км 5/5 540 м
[Cu Sc]
+27.9 +18.0 55 +32 +35 душно 1020.5 1018.2
18 21.02 В 6 30 км 9/9 500 м
[Cu Sc]
+26.7 +18.7 62 +32 +32 очень
душно
1018.6 1016.3 +22.4 +28.5
00 22.02 В 5 30 км 6/6 540 м
[Cu Sc]
+25.2 +19.4 70 +30 +30 душно 1019.3 1017.0 +22.4 +28.5
03 22.02 В 5 30 км 9/9 540 м
[Cu Sc]
+25.3 +19.8 72 +31 +31 очень
душно
1020.1 1017.8
06 22.02 В 7 30 км 1/1 540 м
[Cu Sc]
+23.3 +18.8 76 +30 +30 очень
душно
1018.2 1015.9 +22.4 +28.5 0.6
09 22.02 В 6 30 км 8/8 540 м
[Cu Sc]
+24.6 +19.9 75 +30 +30 очень
душно
1018.2 1015.9
12 22.02 В 6 30 км {ливн. осадки} 9/9 480 м
[Cu Sc]
+25.5 +21.0 76 +32 +32 очень
душно
1019.9 1017.6 +22.6 +28.5 0.2
15 22.02 В 6 30 км 8/8 500 м
[Cu Sc]
+27.5 +21.6 70 +35 +37 очень
душно
1021.0 1018.7

 

Местоположение метеостанции Сент-Джонс (Антигуа и Барбуда): широта 17.12 долгота -61.78 высота над уровнем моря 10 м.

В архиве по умолчанию представлена погода в Сент-Джонсе за последнюю неделю. Архивные данные за месяц целиком и за предыдущие месяцы, начиная с января 2011 года, Вы можете получить, выбрав интересующий диапазон дат из раскрывающегося списка и нажав кнопку "Ввод!".


*Определитесь, кто Вы:
робот инопланетянин человек

Внимание! Время в таблицах - всемирное. Для получения местного времени необходимо прибавить поправку, которая равна -4 ч.

Смотрите также архив погоды в соседних городах и на ближайших метеорологических станциях:

Погода в Аэропорту Ванс Амори (Сент-Китс и Невис) (87 км)
Погода в Пуэнт-а-Питре (Гваделупа) (96 км)
Погода в Аэропорту Роберт Брэдшоу (Сент-Китс и Невис) (98 км)
Погода в Принцессы Юлианы аэропорту (Нидерландские Антилы) (174 км)
Погода в Ангилье (Ангилья) (180 км)
Погода в Канфилд аэропорту (Доминика) (181 км)
Погода в Дуглас-Шарль аэропорту (Доминика) (184 км)
Погода в Аэропорту Мартиники (Мартиника) (292 км)
Погода в Виги (Сент-Люсия) (356 км)
Погода в Шарлотта-Амалии (Виргинские Острова) (364 км)

Пояснения к столбцам:

Ветер - указаны скорость ветра в м/с - средняя за 10 мин, порывы в срок и между сроками (в фигурных скобках) и направление, откуда дует ветер: С - северный, СВ - северо-восточный, В - восточный, ЮВ - юго-восточный, Ю - южный, ЮЗ - юго-западный, З - западный, СЗ - северо-западный.
Видимость - горизонтальная дальность видимости в метрах или километрах. При видимости от 1 до 10 км при отсутствии осадков обычно наблюдается дымка, при ухудшении видимости до 1 км и менее - туман. В сухую погоду видимость может ухудшаться дымом, пылью или мглою.
Явления - указаны атмосферные явления, наблюдавшиеся в срок или в последний час перед сроком; фигурными скобками обозначены явления, наблюдавшиеся между сроками (за 1-3 часа до срока); квадратными скобками обозначены град или гололедные отложения с указанием их диаметра в мм.
Облачность - указаны через наклонную черту общая и нижняя облачность в баллах и высота нижней границы облаков в метрах; квадратными скобками обозначены формы облаков: Ci - перистые, Cs - перисто-слоистые, Cc - перисто-кучевые, Ac - высококучевые, As - высокослоистые, Sc - слоисто-кучевые, Ns - слоисто-дождевые, Cu - кучевые, Cb - кучево-дождевые. Подробнее классификацию облаков см. в Атласе облаков (PDF).
T - Температура воздуха - температура, измеренная на высоте 2 м над землей.
Td - Температура точки росы - температура, при понижении до которой содержащийся в воздухе водяной пар достигнет насыщения.
f - Относительная влажность воздуха - влажноcть воздуха, измеренная на высоте 2 м над землей.
Te - Эффективная температура - температура, которую ощущает одетый по сезону человек в тени. Характеристика душности погоды. При расчете учитывается влияние влажности воздуха и скорости ветра на теплоощущения человека.
Tes - Эффективная температура на солнце - температура, которую ощущает человек, с поправкой на солнечный нагрев. Характеристика знойности погоды. Зависит от высоты солнца над горизонтом, облачности и скорости ветра. Ночью, в пасмурную погоду, а также при ветре 12 м/с и более поправка равна нулю.
P - Атмосферное давление - приведенное к уровню моря атмосферное давление.
Po - Атмосферное давление - измеренное на уровне метеостанции атмосферное давление.
Tmin - Минимальная температура - минимум температуры воздуха на высоте 2 м над землей.
Tmax - Максимальная температура - максимум температуры воздуха на высоте 2 м над землей.
R - Количество осадков - Количество выпавших осадков за период времени, мм. При наведении курсора мыши на число - период времени, за который выпало указанное количество осадков.
R24 - Количество осадков - Количество выпавших осадков за 24 часа, мм.
S - Снежный покров - Высота снежного покрова, см. При наведении курсора мыши на число - состояние снежного покрова и степень покрытия местности в баллах.